(196307) = 2003 FL19

Discovered at Palomar on 2003-03-25 by NEAT.

Orbit

Orbit type: Main Belt

Note: WebGL enabled browser required.

epoch2024-03-31.0
epoch JD2460400.5
perihelion date2025-02-09.10269
perihelion JD2460715.60269
argument of perihelion (°)111.31587
ascending node (°)125.15523
inclination (°)7.64065
eccentricity0.1034565
perihelion distance (AU)2.0877345
Tisserand w.r.t. Jupiter3.6
ΔV w.r.t. Earth (km/sec)9.3
semimajor axis (AU)2.3286484
mean anomaly (°)272.60229
mean daily motion (°/day)0.27736270
aphelion distance (AU)2.570
period (years)3.55
P-vector [x]-0.54559510
P-vector [y]-0.80972046
P-vector [z]-0.21605266
Q-vector [x]0.83096856
Q-vector [y]-0.48925777
Q-vector [z]-0.26479820
absolute magnitude16.87
phase slope0.15
uncertainty0
referenceMPEC 2024-C163
observations used470
oppositions16
arc length (days)7654
first opposition used2003
last opposition used2024
residual rms (arc-secs)0.75
perturbers coarse indicatorM-v
perturbers precise indicator003Ek
first observation date used2003-02-28.0
last observation date used2024-02-12.0
computer nameMPCLINUX
JD of orbit computation2456937.470810
perihelion JD uncertainty (days)8.6390E-05
argument of perihelion uncertainty (°)4.5104E-05
ascending node uncertainty (°)3.5309E-05
inclination uncertainty (°)3.3815E-06
eccentricity uncertainty 4.2229E-08
perihelion distance uncertainty (AU)9.6494E-08
Minimum Orbit Intersection Distances (in AU)
for orbit epoch: 2460200.5, reference: E2024-CG3
Mercury1.63287
Venus1.36964
Earth1.08944
Mars0.54563
Jupiter2.44901
Saturn6.52016
Uranus16.1746
Neptune27.3022

Observations

484 total observations over interval: 2003 02 28.31803 – 2024 02 12.285000
These data are available for download (format description).

Date (UT) J2000 RA J2000 Dec Magn Location Ref
2003 02 28.31803 11 21 40.96 +13 12 43.8 19.4   704 – Lincoln Laboratory ETS, New Mexico MPS 174703
2003 02 28.33282 11 21 40.17 +13 12 54.2 19.6   704 – Lincoln Laboratory ETS, New Mexico MPS 174703
2003 02 28.34735 11 21 39.44 +13 13 02.3 19.5   704 – Lincoln Laboratory ETS, New Mexico MPS 174703
2003 02 28.36161 11 21 38.72 +13 13 10.0 20.2   704 – Lincoln Laboratory ETS, New Mexico MPS 174703
2003 03 25.24271 11 00 07.14 +16 40 08.0 20.2   644 – Palomar Mountain/NEAT MPS 76305
2003 03 25.26735 11 00 05.99 +16 40 16.4 19.9   644 – Palomar Mountain/NEAT MPS 76305
2003 03 25.30514 11 00 04.20 +16 40 29.4 20.0   644 – Palomar Mountain/NEAT MPS 76305
2003 03 26.13329 10 59 27.85 +16 45 08.0 19.6 V 691 – Steward Observatory, Kitt Peak-Spacewatch MPS 78349
2003 03 26.15996 10 59 26.65 +16 45 16.8 19.6 V 691 – Steward Observatory, Kitt Peak-Spacewatch MPS 78349
2003 03 26.18620 10 59 25.45 +16 45 25.7 19.6 V 691 – Steward Observatory, Kitt Peak-Spacewatch MPS 78349
2003 03 28.99089 10 57 27.55 +16 59 47.3 19.0 V 049 – Uppsala-Kvistaberg MPS 76305
2003 03 29.00453 10 57 26.99 +16 59 50.7 18.9 V 049 – Uppsala-Kvistaberg MPS 76305
2003 03 29.01793 10 57 26.45 +16 59 53.6 19.1 V 049 – Uppsala-Kvistaberg MPS 76305
2003 03 31.81610 10 55 40.66 +17 12 08.9 18.1 R 246 – Klet Observatory-KLENOT MPS 78349
2003 03 31.81898 10 55 40.58 +17 12 08.8   246 – Klet Observatory-KLENOT MPS 78349
2003 03 31.81988 10 55 40.50 +17 12 08.7   246 – Klet Observatory-KLENOT MPS 78349
2003 03 31.82169 10 55 40.39 +17 12 09.8   246 – Klet Observatory-KLENOT MPS 78349
2003 03 31.82264 10 55 40.39 +17 12 09.1 18.0 R 246 – Klet Observatory-KLENOT MPS 78349
2003 04 10.13245 10 51 19.84 +17 37 11.0 20.8 V 691 – Steward Observatory, Kitt Peak-Spacewatch MPS 80194
2003 04 10.15891 10 51 19.26 +17 37 13.4 21.2 V 691 – Steward Observatory, Kitt Peak-Spacewatch MPS 80194
2003 04 10.18699 10 51 18.64 +17 37 15.8 20.9 V 691 – Steward Observatory, Kitt Peak-Spacewatch MPS 80194
2004 08 21.33309 22 58 28.14 -13 46 25.6 19.4 R 703 – Catalina Sky Survey MPS 174703
2004 08 21.34309 22 58 27.62 -13 46 31.7 18.3 R 703 – Catalina Sky Survey MPS 174703
2004 08 21.35306 22 58 27.10 -13 46 40.0 19.3 R 703 – Catalina Sky Survey MPS 174703
2004 08 21.36325 22 58 26.40 -13 46 44.3 18.8 R 703 – Catalina Sky Survey MPS 174703
2004 09 07.24717 22 43 32.00 -16 11 32.0 19.6   704 – Lincoln Laboratory ETS, New Mexico MPS 174703
2004 09 07.26934 22 43 30.68 -16 11 41.2 20.0   704 – Lincoln Laboratory ETS, New Mexico MPS 174703
2004 09 07.28036 22 43 30.13 -16 11 46.6 20.2   704 – Lincoln Laboratory ETS, New Mexico MPS 174703
2006 01 09.09699 05 53 05.69 +17 24 36.4 21.0 V 691 – Steward Observatory, Kitt Peak-Spacewatch MPS 174703
2006 01 09.11435 05 53 04.65 +17 24 39.6 21.1 V 691 – Steward Observatory, Kitt Peak-Spacewatch MPS 174703
2006 01 09.13225 05 53 03.59 +17 24 43.7 20.9 V 691 – Steward Observatory, Kitt Peak-Spacewatch MPS 174703
2007 02 25.48396 16 10 05.44 -11 55 44.5 21.0 V 691 – Steward Observatory, Kitt Peak-Spacewatch MPS 201487
2007 02 25.49407 16 10 06.21 -11 55 45.1 21.1 V 691 – Steward Observatory, Kitt Peak-Spacewatch MPS 201487
2007 02 25.50417 16 10 07.05 -11 55 45.1 21.1 V 691 – Steward Observatory, Kitt Peak-Spacewatch MPS 201487
2007 05 11.44327 16 39 25.23 -09 02 35.3 18.7 V G96 – Mt. Lemmon Survey MPS 208868
2007 05 11.44897 16 39 24.94 -09 02 34.3 18.8 V G96 – Mt. Lemmon Survey MPS 208868
2007 05 11.45470 16 39 24.69 -09 02 33.7 18.8 V G96 – Mt. Lemmon Survey MPS 208868
2007 05 25.32123 16 27 10.15 -08 46 10.4 18.6 V 703 – Catalina Sky Survey MPS 210428
2007 05 25.33044 16 27 09.54 -08 46 09.9 18.9 V 703 – Catalina Sky Survey MPS 210428
2007 05 25.33963 16 27 08.92 -08 46 10.3 19.0 V 703 – Catalina Sky Survey MPS 210428
2007 05 25.34885 16 27 08.38 -08 46 09.4 18.7 V 703 – Catalina Sky Survey MPS 210428
2007 06 15.36236 16 07 52.26 -09 19 58.1 19.7 V 691 – Steward Observatory, Kitt Peak-Spacewatch MPS 210703
2007 06 15.38341 16 07 51.29 -09 20 01.8 19.5 V 691 – Steward Observatory, Kitt Peak-Spacewatch MPS 210703
2007 06 15.40101 16 07 50.41 -09 20 05.8 19.7 V 691 – Steward Observatory, Kitt Peak-Spacewatch MPS 210703
2007 06 19.28847 16 05 02.79 -09 34 33.0 19.6 V 691 – Steward Observatory, Kitt Peak-Spacewatch MPS 211047
2007 06 19.30645 16 05 02.08 -09 34 36.6 19.4 V 691 – Steward Observatory, Kitt Peak-Spacewatch MPS 211047
2007 06 19.32171 16 05 01.37 -09 34 40.9 19.7 V 691 – Steward Observatory, Kitt Peak-Spacewatch MPS 211047
2008 09 24.37434 02 39 42.12 +03 31 47.4 20.6 V G96 – Mt. Lemmon Survey MPS 256612
2008 09 24.38194 02 39 41.86 +03 31 45.0 20.6 V G96 – Mt. Lemmon Survey MPS 256612
2008 09 24.38956 02 39 41.65 +03 31 42.2 20.8 V G96 – Mt. Lemmon Survey MPS 256612
2008 09 24.39722 02 39 41.43 +03 31 39.4 20.9 V G96 – Mt. Lemmon Survey MPS 256612
2008 10 06.38179 02 32 29.90 +02 16 51.1 20.7 V G96 – Mt. Lemmon Survey MPS 259177
2008 10 06.39121 02 32 29.47 +02 16 47.6 20.4 V G96 – Mt. Lemmon Survey MPS 259177
2008 10 06.40064 02 32 29.04 +02 16 43.7 20.8 V G96 – Mt. Lemmon Survey MPS 259177
2008 10 06.41006 02 32 28.60 +02 16 40.2 20.7 V G96 – Mt. Lemmon Survey MPS 259177
2008 10 26.24355 02 14 48.62 +00 18 42.3 20.3 V G96 – Mt. Lemmon Survey MPS 261402
2008 10 26.24857 02 14 48.30 +00 18 40.5 20.4 V G96 – Mt. Lemmon Survey MPS 261402
2008 10 26.25367 02 14 47.97 +00 18 39.2 20.3 V G96 – Mt. Lemmon Survey MPS 261402
2008 10 26.25867 02 14 47.68 +00 18 37.4 20.3 V G96 – Mt. Lemmon Survey MPS 261402
2009 12 19.43279 10 26 16.65 +10 59 09.3 21.0 V G96 – Mt. Lemmon Survey MPS 309183
2009 12 19.43948 10 26 16.87 +10 59 09.2 21.1 V G96 – Mt. Lemmon Survey MPS 309183
2009 12 19.44620 10 26 17.05 +10 59 09.4 20.9 V G96 – Mt. Lemmon Survey MPS 309183
2009 12 19.45292 10 26 17.26 +10 59 09.5 21.1 V G96 – Mt. Lemmon Survey MPS 309183
2010 01 12.44979 10 30 58.93 +12 09 01.1   691 – Steward Observatory, Kitt Peak-Spacewatch MPS 311084
2010 01 12.46750 10 30 58.73 +12 09 06.9   691 – Steward Observatory, Kitt Peak-Spacewatch MPS 311084
2010 01 12.48521 10 30 58.49 +12 09 12.8   691 – Steward Observatory, Kitt Peak-Spacewatch MPS 311084
2010 02 09.26574 10 15 48.78 +15 47 28.9 19.7 V 703 – Catalina Sky Survey MPS 316420
2010 02 09.27156 10 15 48.56 +15 47 32.3 19.8 V 703 – Catalina Sky Survey MPS 316420
2010 02 09.27734 10 15 48.20 +15 47 34.2 19.4 V 703 – Catalina Sky Survey MPS 316420
2010 02 09.28316 10 15 47.80 +15 47 38.2 19.6 V 703 – Catalina Sky Survey MPS 316420
2010 02 15.25543 10 10 21.50 +16 43 54.1 19.7 V 703 – Catalina Sky Survey MPS 316420
2010 02 15.26450 10 10 20.96 +16 43 58.4 19.2 V 703 – Catalina Sky Survey MPS 316420
2010 02 15.27373 10 10 20.49 +16 44 04.8 19.5 V 703 – Catalina Sky Survey MPS 316420
2010 02 15.28307 10 10 19.88 +16 44 09.0 19.7 V 703 – Catalina Sky Survey MPS 316420
2010 02 16.41556 10 09 15.30 +16 54 42.9 19.5 V G96 – Mt. Lemmon Survey MPS 316420
2010 02 16.42331 10 09 14.83 +16 54 47.4 19.6 V G96 – Mt. Lemmon Survey MPS 316420
2010 02 16.43119 10 09 14.36 +16 54 51.5 19.6 V G96 – Mt. Lemmon Survey MPS 316420
2010 02 16.43899 10 09 13.89 +16 54 56.0 19.6 V G96 – Mt. Lemmon Survey MPS 316420
2010 02 19.28964 10 06 30.74 +17 21 12.5 19.9   704 – Lincoln Laboratory ETS, New Mexico MPS 316420
2010 02 19.30170 10 06 30.00 +17 21 19.0 20.4   704 – Lincoln Laboratory ETS, New Mexico MPS 316420
2010 02 19.31380 10 06 29.27 +17 21 25.8 19.7   704 – Lincoln Laboratory ETS, New Mexico MPS 316420
2010 02 19.32590 10 06 28.51 +17 21 32.7 20.0   704 – Lincoln Laboratory ETS, New Mexico MPS 316420
2010 02 20.337338 10 05 30.446 +17 30 41.93 19.64 r F51 – Pan-STARRS 1, Haleakala MPS 320495
2010 02 20.347899 10 05 29.798 +17 30 47.81 19.68 r F51 – Pan-STARRS 1, Haleakala MPS 320495
2011 07 27.47235 22 01 28.846 -14 58 53.29 20.0 w F51 – Pan-STARRS 1, Haleakala MPS 387686
2011 07 27.48705 22 01 28.212 -14 59 00.71 19.9 w F51 – Pan-STARRS 1, Haleakala MPS 387686
2011 07 27.50174 22 01 27.576 -14 59 08.09 20.0 w F51 – Pan-STARRS 1, Haleakala MPS 387686
2011 07 27.51643 22 01 26.938 -14 59 15.46 20.0 w F51 – Pan-STARRS 1, Haleakala MPS 387686
2011 08 24.58160 21 37 23.66 -18 59 49.7 19.3 V E12 – Siding Spring Survey MPS 389061
